Погода в Городищах

Россия / Владимирская область     55°52′02″N   39°05′11″E
темп.,
°C
ветер,
м/с
пор.,
м/с
влажн.,
%
обл.,
%
осадки,
мм/ч
давл.,
гПа
погр.,
м
5 августа, чт
чт500:00+14юз116995 0.0 101710
03:00+12сз11775 0.0 101710
06:00+14в11775 0.0 101822
09:00+20ююв1154100 0.0 1017477
12:00+24юв2239100 0.0 10161574
15:00+24ююв2445100 0.0 1015982
18:00+16сз2392100 2.6 101689
21:00+15в389598 3.4 1014229
6 августа, пт
пт600:00+15вюв3993100 0.3 1013244
03:00+14юв2296100 0.3 101342
06:00+15ю249076 0.2 1013117
09:00+17ююв2691100 0.7 1012297
12:00+24ююз3662100 0.1 10121220
15:00+18ююз4994100 2.9 1012411
18:00+18всв2396100 1.6 1011104
21:00+17всв389698 1.7 1011231
7 августа, сб
сб700:00+16всв410955 0.1 1010290
03:00+15в379961 0.9 1010177
06:00+16в269788 1.8 1010188
09:00+21юв3578100 2.5 1009333
12:00+21ююв497483 0.1 1010407
15:00+29ю484652 0.2 10091818
18:00+23юв3965100 0.0 1010351
21:00+20вюв3107378 0.0 1010177
8 августа, вс
вс800:00+18ю248092 0.0 101064
03:00+17ююз2290100 0.3 101124
06:00+18юз259589 0.1 1012171
09:00+21зсз348097 0.3 1013584
12:00+20з1377100 0.1 1014318
15:00+25зюз3445100 0.1 10141306
18:00+23юз2455100 0.0 1016355
21:00+18зсз34794 0.0 101784
9 августа, пн
пн900:00+16ссз12910 0.0 101711
03:00+15зсз11913 0.0 101911
06:00+15зсз118711 0.0 101924
09:00+22юз126119 0.0 1019551
12:00+26з224519 0.0 10191537
15:00+27з22390 0.0 10181927
18:00+26зюз014821 0.0 1017585
21:00+20з116378 0.0 101811